Home > Weather > Al Ain > Past weeks

Flag for United Arab Emirates Past Weather in Al Ain, Abu Dhabi, United Arab Emirates — Yesterday and Last 2 Weeks

Now
90 °F

Clear.


Feels Like: 92 °F
Forecast: 90 / 110 °F
Wind: 9 mph from South

Location: Al Ain International Airport

Current Time: Jul 30, 2016 at 7:47:42 AM

Latest Report: Jul 30, 2016 at 7:00 AM


Visibility: 6 mi

Pressure: 29.59 "Hg

Humidity: 46%

Dew Point: 66 °F

Location of Al AinLocation

Past Weather in Al Ain — Graph

°F

Al Ain Temperature Yesterday

Maximum temperature yesterday: 104 °F (at 4:00 PM)
Minimum temperature yesterday: 82 °F (at 6:00 AM)
Average temperature yesterday: 94 °F

High & Low Weather Summary for the Past Weeks

 TemperatureHumidityPressure
High117 °F (Jul 15, 4:00 PM)70% (Jul 27, 7:00 AM)29.68 "Hg (Jul 27, 7:00 AM)
Low81 °F (Jul 28, 5:00 AM)8% (Jul 23, 4:00 PM)29.39 "Hg (Jul 16, 4:00 PM)
Average100 °F35%29.54 "Hg
* Reported Jul 15 6:00 AM — Jul 30 6:00 AM, Al Ain, Weather by CustomWeather, © 2016

Note: Actual official high and low records may vary slightly from our data, if they occured in-between our weather recording intervals... More about our weather records

Advertising

Al Ain Weather History for the Previous 24 Hours

Scroll right to see more
 ConditionsComfort  
Time TempWeatherWind HumidityBarometerVisibility
6:00 AM
Sat, Jul 30
90 °FClear.6 mph52%29.56 "Hg6 mi
5:00 AM90 °FClear.2 mph55%29.56 "Hg10 mi
4:00 AM91 °FClear.3 mph49%29.56 "Hg10 mi
3:00 AM91 °FClear.2 mph52%29.56 "Hg10 mi
2:00 AM91 °FClear.2 mph49%29.56 "Hg10 mi
1:00 AM93 °FPassing clouds.3 mph47%29.56 "HgN/A
12:00 AM93 °FClear.7 mph49%29.59 "Hg10 mi
11:00 PM
Fri, Jul 29
95 °FClear.12 mph44%29.59 "Hg10 mi
10:00 PM95 °FClear.13 mph47%29.59 "Hg10 mi
9:00 PM97 °FClear.14 mph44%29.56 "Hg5 mi
8:00 PM99 °FClear.17 mph42%29.56 "Hg5 mi
7:00 PM102 °FPassing clouds.7 mph33%29.53 "HgN/A
6:00 PM104 °FPassing clouds.9 mph31%29.53 "HgN/A
5:00 PM104 °FPassing clouds.5 mph31%29.53 "HgN/A
4:00 PM104 °FSunny.5 mph31%29.53 "Hg10 mi
3:00 PM102 °FSunny.3 mph33%29.56 "Hg10 mi
2:00 PM100 °FPassing clouds.5 mph35%29.59 "HgN/A
1:00 PM99 °FPassing clouds.6 mph37%29.59 "HgN/A
12:00 PM95 °FSunny.3 mph44%29.62 "Hg10 mi
11:00 AM91 °FClear.7 mph49%29.65 "Hg5 mi
10:00 AM88 °FClear.9 mph55%29.65 "Hg5 mi
9:00 AM84 °FClear.12 mph62%29.65 "Hg4 mi
8:00 AM84 °FClear.16 mph58%29.65 "Hg4 mi
7:00 AM82 °FDuststorm.17 mph62%29.65 "Hg3 mi
Weather by CustomWeather, © 2016

See weather overviewHow to use our weather pages